Terminal Aerodrome Forecast
Issued by NWS Springfield, MO

Home | Current Version | Previous Version | Text Only | Print | Product List | Glossary On
Versions: 1 2 3 4 5 6 7 8 9 10 11 12 13 14 15 16 17 18 19 20 21 22
000
FTUS43 KSGF 281100
TAFSGF
TAF
KSGF 281120Z 2812/2912 17017G24KT P6SM SKC WS020/23035KT
     FM290100 20013KT P6SM SCT250 WS020/22045KT=

USA.gov is the U.S. government's official web portal to all federal, state and local government web resources and services.